When you browse on this site, cookies collect data to enhance your experience and personalize the content and advertising you see.
Visit our Privacy Policy to learn more. By continuing to use the site, you agree to this use of cookies and data.
  • In Sweden
  • List of Countries
  • For 7 days
  • Water Temperature
  • Satellite Maps
  • Weather Map
  • Weather Widgets
  • user-avatar
    Login

    Hourly Weather Besni

    Today, 20 November, Tuesday

    Time Temperature Precipitation Wind Pressure Humidity
    00:00 +8°C° 0 mm 0 mps 684 mmHg 61%
    01:00 +8°C° 0 mm 0 mps 684 mmHg 61%
    02:00 +8°C° 0 mm 0 mps 684 mmHg 61%
    03:00 +8°C° 0 mm 0 mps 683 mmHg 59%
    04:00 +8°C° 0 mm 0 mps 683 mmHg 59%
    05:00 +7°C° 0 mm 0 mps 684 mmHg 60%
    06:00 +7°C° 0 mm 0 mps 684 mmHg 60%
    07:00 +8°C° 0 mm 0 mps 684 mmHg 57%
    08:00 +10°C° 0 mm 1 mps 684 mmHg 55%
    09:00 +12°C° 0 mm 1 mps 685 mmHg 48%
    10:00 +13°C° 0 mm 1 mps 685 mmHg 45%
    11:00 +14°C° 0 mm 1 mps 685 mmHg 42%
    12:00 +15°C° 0 mm 1 mps 685 mmHg 39%
    13:00 +16°C° 0 mm 1 mps 685 mmHg 38%
    14:00 +16°C° 0 mm 1 mps 685 mmHg 37%
    15:00 +18°C° 0 mm 1 mps 684 mmHg 36%
    16:00 +15°C° 0 mm 1 mps 684 mmHg 42%
    17:00 +14°C° 0 mm 1 mps 684 mmHg 47%
    18:00 +13°C° 0 mm 1 mps 683 mmHg 52%
    19:00 +13°C° 0 mm 1 mps 683 mmHg 52%
    20:00 +12°C° 0 mm 1 mps 683 mmHg 53%
    21:00 +12°C° 0 mm 1 mps 683 mmHg 53%
    22:00 +12°C° 0 mm 1 mps 683 mmHg 53%
    23:00 +11°C° 0 mm 1 mps 683 mmHg 53%

    Tomorrow, 21 November, Wednesday

    Time Temperature Precipitation Wind Pressure Humidity
    00:00 +11°C° 0 mm 1 mps 683 mmHg 53%
    01:00 +11°C° 0 mm 1 mps 682 mmHg 53%
    02:00 +11°C° 0 mm 1 mps 682 mmHg 54%
    03:00 +10°C° 0 mm 1 mps 682 mmHg 54%
    04:00 +10°C° 0 mm 1 mps 682 mmHg 54%
    05:00 +10°C° 0 mm 1 mps 681 mmHg 55%
    06:00 +10°C° 0 mm 1 mps 681 mmHg 55%
    07:00 +11°C° 0 mm 1 mps 681 mmHg 54%
    08:00 +12°C° 0 mm 1 mps 682 mmHg 53%
    09:00 +13°C° 0 mm 1 mps 682 mmHg 52%
    10:00 +13°C° 0 mm 0 mps 682 mmHg 48%
    11:00 +13°C° 0 mm 0 mps 682 mmHg 45%
    12:00 +14°C° 0 mm 0 mps 682 mmHg 41%
    13:00 +14°C° 0 mm 0 mps 682 mmHg 41%
    14:00 +15°C° 0 mm 1 mps 681 mmHg 42%
    15:00 +16°C° 0 mm 1 mps 681 mmHg 42%
    16:00 +15°C° 0 mm 1 mps 680 mmHg 47%
    17:00 +14°C° 0 mm 1 mps 680 mmHg 52%
    18:00 +13°C° 0 mm 1 mps 680 mmHg 57%
    19:00 +13°C° 0 mm 1 mps 680 mmHg 58%
    20:00 +13°C° 0 mm 1 mps 680 mmHg 60%
    21:00 +12°C° 0 mm 1 mps 680 mmHg 62%
    22:00 +12°C° 0.1 mm 1 mps 680 mmHg 63%
    23:00 +12°C° 0.1 mm 1 mps 680 mmHg 64%

    Day after tomorrow, 22 November, Thursday

    Time Temperature Precipitation Wind Pressure Humidity
    00:00 +11°C° 0.1 mm 1 mps 679 mmHg 66%
    01:00 +11°C° 0.1 mm 1 mps 679 mmHg 67%
    02:00 +11°C° 0.1 mm 1 mps 679 mmHg 68%
    03:00 +10°C° 0.1 mm 1 mps 679 mmHg 69%
    04:00 +10°C° 0 mm 1 mps 679 mmHg 70%
    05:00 +10°C° 0 mm 1 mps 679 mmHg 71%
    06:00 +10°C° 0 mm 1 mps 678 mmHg 72%
    07:00 +10°C° 0 mm 1 mps 679 mmHg 71%
    08:00 +10°C° 0 mm 1 mps 679 mmHg 70%
    09:00 +10°C° 0 mm 2 mps 679 mmHg 69%
    10:00 +10°C° 0.1 mm 2 mps 679 mmHg 70%
    11:00 +10°C° 0.1 mm 2 mps 679 mmHg 71%
    12:00 +12°C° 0.1 mm 2 mps 679 mmHg 73%
    13:00 +10°C° 0.6 mm 2 mps 679 mmHg 75%
    14:00 +11°C° 0.6 mm 1 mps 678 mmHg 77%
    15:00 +11°C° 0.6 mm 1 mps 678 mmHg 79%
    16:00 +11°C° 0.9 mm 1 mps 678 mmHg 81%
    17:00 +11°C° 0.9 mm 1 mps 678 mmHg 83%
    18:00 +11°C° 0.9 mm 1 mps 678 mmHg 84%
    19:00 +10°C° 0.4 mm 1 mps 678 mmHg 86%
    20:00 +10°C° 0.4 mm 1 mps 678 mmHg 87%
    21:00 +10°C° 0.4 mm 1 mps 679 mmHg 89%
    22:00 +10°C° 0.2 mm 1 mps 679 mmHg 89%
    23:00 +10°C° 0.2 mm 1 mps 679 mmHg 90%

    23 November, Friday

    Time Temperature Precipitation Wind Pressure Humidity
    00:00 +10°C° 0.2 mm 1 mps 679 mmHg 91%
    01:00 +10°C° 0.1 mm 1 mps 679 mmHg 91%
    02:00 +10°C° 0.1 mm 1 mps 679 mmHg 92%
    03:00 +10°C° 0.1 mm 1 mps 679 mmHg 93%
    04:00 +9°C° 0 mm 1 mps 679 mmHg 93%
    05:00 +9°C° 0 mm 1 mps 679 mmHg 93%
    06:00 +9°C° 0 mm 1 mps 679 mmHg 93%
    07:00 +9°C° 0.1 mm 1 mps 679 mmHg 91%
    08:00 +10°C° 0.1 mm 1 mps 679 mmHg 89%
    09:00 +10°C° 0.1 mm 1 mps 680 mmHg 88%
    10:00 +11°C° 0.1 mm 1 mps 680 mmHg 84%
    11:00 +10°C° 0.1 mm 2 mps 680 mmHg 80%
    12:00 +12°C° 0.1 mm 2 mps 680 mmHg 76%
    13:00 +12°C° 0.2 mm 1 mps 679 mmHg 75%
    14:00 +12°C° 0.2 mm 1 mps 679 mmHg 73%
    15:00 +13°C° 0.2 mm 1 mps 679 mmHg 71%
    16:00 +12°C° 0.3 mm 1 mps 679 mmHg 73%
    17:00 +12°C° 0.3 mm 1 mps 679 mmHg 75%
    18:00 +10°C° 0.3 mm 2 mps 679 mmHg 78%
    19:00 +10°C° 0.2 mm 2 mps 679 mmHg 79%
    20:00 +10°C° 0.2 mm 2 mps 679 mmHg 81%
    21:00 +10°C° 0.2 mm 2 mps 680 mmHg 82%
    22:00 +9°C° 0.3 mm 2 mps 680 mmHg 84%
    23:00 +9°C° 0.3 mm 2 mps 680 mmHg 85%

    24 November, Saturday

    Time Temperature Precipitation Wind Pressure Humidity
    00:00 +9°C° 0.3 mm 2 mps 680 mmHg 87%
    01:00 +9°C° 0.4 mm 2 mps 680 mmHg 87%
    02:00 +9°C° 0.4 mm 2 mps 680 mmHg 87%
    03:00 +9°C° 0.4 mm 2 mps 680 mmHg 87%
    04:00 +9°C° 0.3 mm 2 mps 681 mmHg 86%
    05:00 +8°C° 0.3 mm 2 mps 681 mmHg 85%
    06:00 +8°C° 0.3 mm 2 mps 681 mmHg 84%
    07:00 +9°C° 0.1 mm 2 mps 681 mmHg 82%
    08:00 +9°C° 0.1 mm 2 mps 682 mmHg 79%
    09:00 +10°C° 0.1 mm 2 mps 682 mmHg 77%
    10:00 +10°C° 0 mm 2 mps 682 mmHg 73%
    11:00 +11°C° 0 mm 3 mps 682 mmHg 70%
    12:00 +12°C° 0 mm 3 mps 682 mmHg 67%
    13:00 +12°C° 0.2 mm 3 mps 682 mmHg 67%
    14:00 +12°C° 0.2 mm 3 mps 682 mmHg 66%
    15:00 +13°C° 0.2 mm 2 mps 682 mmHg 66%
    16:00 +13°C° 0.3 mm 2 mps 682 mmHg 69%
    17:00 +12°C° 0.3 mm 2 mps 682 mmHg 73%
    18:00 +12°C° 0.3 mm 2 mps 682 mmHg 76%
    19:00 +11°C° 0.3 mm 1 mps 682 mmHg 78%
    20:00 +11°C° 0.3 mm 1 mps 683 mmHg 80%
    21:00 +11°C° 0.3 mm 1 mps 683 mmHg 82%
    22:00 +11°C° 0.4 mm 1 mps 683 mmHg 83%
    23:00 +11°C° 0.4 mm 1 mps 683 mmHg 84%

    25 November, Sunday

    Time Temperature Precipitation Wind Pressure Humidity
    00:00 +10°C° 0.4 mm 1 mps 683 mmHg 85%
    01:00 +10°C° 0.3 mm 1 mps 683 mmHg 84%
    02:00 +10°C° 0.3 mm 1 mps 682 mmHg 84%
    03:00 +10°C° 0.3 mm 1 mps 682 mmHg 83%
    04:00 +10°C° 0.1 mm 1 mps 682 mmHg 83%
    05:00 +10°C° 0.1 mm 1 mps 682 mmHg 83%
    06:00 +9°C° 0.1 mm 1 mps 682 mmHg 83%
    07:00 +10°C° 0 mm 1 mps 682 mmHg 80%
    08:00 +10°C° 0 mm 1 mps 682 mmHg 77%
    09:00 +11°C° 0 mm 1 mps 682 mmHg 74%
    10:00 +12°C° 0 mm 1 mps 682 mmHg 70%
    11:00 +11°C° 0 mm 0 mps 682 mmHg 65%
    12:00 +12°C° 0 mm 0 mps 682 mmHg 61%
    13:00 +12°C° 0.1 mm 0 mps 681 mmHg 60%
    14:00 +13°C° 0.1 mm 0 mps 681 mmHg 58%
    15:00 +13°C° 0.1 mm 0 mps 681 mmHg 57%
    16:00 +12°C° 0.1 mm 0 mps 681 mmHg 61%
    17:00 +12°C° 0.1 mm 0 mps 681 mmHg 65%
    18:00 +11°C° 0.1 mm 0 mps 681 mmHg 68%
    19:00 +11°C° 0 mm 0 mps 681 mmHg 70%
    20:00 +10°C° 0 mm 0 mps 681 mmHg 72%
    21:00 +10°C° 0 mm 0 mps 681 mmHg 74%
    22:00 +10°C° 0 mm 0 mps 681 mmHg 76%
    23:00 +9°C° 0 mm 0 mps 681 mmHg 77%
    Show more